DW1920 Weather Reports


Display with metric or nautical units.
time (UTC)temp
F
wind
direction
speed
MPH
gust
MPH
rain 1hr
in
rain 24hr
in
rain mn
in
humidity
%
barometer
mb
20260903061003 62 129 9.0 10.0 0.00 0.00 0.00 94 1017.6
20260903060003 61 110 7.0 9.0 0.00 0.00 0.00 94 1017.5
20260903055003 61 98 8.0 10.0 0.00 0.00 0.00 94 1017.7
20260903054003 61 109 8.0 9.0 0.00 0.00 0.00 94 1017.6
20260903053024 61 78 8.0 9.0 0.00 0.00 0.00 94 1017.7
20260903052003 61 47 6.0 9.0 0.00 0.00 0.00 94 1018.1
20260903051003 61 43 7.0 12.0 0.00 0.00 0.00 94 1018.2
20260903050024 61 43 7.0 9.0 0.00 0.00 0.00 94 1018.3
20260903045003 61 56 4.0 9.0 0.00 0.00 0.00 94 1018.6
20260903044002 61 47 5.0 8.0 0.00 0.00 0.00 94 1018.8
20260903043003 61 19 7.0 9.0 0.00 0.00 0.00 94 1018.9
20260903042024 61 36 6.0 9.0 0.00 0.00 0.00 94 1018.7
20260903041003 61 42 7.0 9.0 0.00 0.00 0.00 94 1018.9
20260903040003 61 37 4.0 9.0 0.00 0.00 0.00 94 1018.8
20260903035024 61 44 7.0 9.0 0.00 0.00 0.00 94 1018.9
20260903034024 61 73 7.0 9.0 0.00 0.00 0.00 93 1019.0
20260903033003 60 62 6.0 10.0 0.00 0.00 0.00 93 1019.0
20260903032003 61 47 6.0 8.0 0.00 0.00 0.00 93 1019.0
20260903031003 60 64 4.0 7.0 0.00 0.00 0.00 93 1019.0
20260903030003 60 67 4.0 7.0 0.00 0.00 0.00 93 1019.1
20260903025025 60 87 5.0 7.0 0.00 0.00 0.00 93 1019.3
20260903024003 60 33 5.0 7.0 0.00 0.00 0.00 93 1019.4
20260903023045 60 30 5.0 7.0 0.00 0.00 0.00 93 1019.5
20260903022024 60 65 6.0 8.0 0.00 0.00 0.00 93 1019.3
20260903021002 60 56 5.0 9.0 0.00 0.00 0.00 93 1019.4
20260903020003 60 45 6.0 8.0 0.00 0.00 0.00 93 1019.3
20260903015003 60 61 7.0 9.0 0.00 0.00 0.00 93 1019.2
20260903014003 60 15 4.0 9.0 0.00 0.00 0.00 93 1019.6
20260903013003 60 45 7.0 10.0 0.00 0.00 0.00 93 1019.2
20260903012002 60 70 9.0 11.0 0.00 0.00 0.00 92 1019.0
20260903011024 60 56 7.0 10.0 0.00 0.00 0.00 92 1019.2
20260903010024 60 52 7.0 9.0 0.00 0.00 0.00 92 1019.4
20260903005003 60 52 7.0 10.0 0.00 0.00 0.00 92 1019.4
20260903004003 60 51 8.0 9.0 0.00 0.00 0.00 92 1019.4
20260903003003 60 58 6.0 9.0 0.00 0.00 0.00 92 1019.4
20260903002003 60 67 8.0 9.0 0.00 0.00 0.00 92 1019.7
20260903001003 60 44 5.0 8.0 0.00 0.00 0.00 92 1019.9
20260903000003 60 48 6.0 9.0 0.00 0.00 0.00 92 1019.9
20260902235003 60 61 6.0 10.0 0.00 0.00 0.00 92 1020.0
20260902234002 60 68 9.0 10.0 0.00 0.00 0.00 92 1019.9
20260902233003 60 66 8.0 11.0 0.00 0.00 0.00 91 1019.8
20260902232003 60 69 8.0 10.0 0.00 0.00 0.00 91 1019.9
20260902231024 60 57 7.0 11.0 0.00 0.00 0.00 91 1020.0
20260902230024 61 55 9.0 11.0 0.00 0.00 0.00 91 1020.1
20260902225003 61 72 10.0 11.0 0.00 0.00 0.00 91 1020.2
20260902224002 61 71 8.0 10.0 0.00 0.00 0.00 91 1020.4
20260902223003 61 65 7.0 9.0 0.00 0.00 0.00 91 1020.4
20260902222024 61 65 8.0 10.0 0.00 0.00 0.00 90 1020.3
20260902221003 61 70 8.0 10.0 0.00 0.00 0.00 90 1020.3
20260902220003 61 57 7.0 12.0 0.00 0.00 0.00 89 1020.4
20260902215024 62 77 9.0 11.0 0.00 0.00 0.00 89 1020.4
20260902214003 62 83 9.0 11.0 0.00 0.00 0.00 89 1020.4
20260902213024 62 81 10.0 12.0 0.00 0.00 0.00 89 1020.5
20260902212003 61 89 10.0 12.0 0.00 0.00 0.00 89 1020.4
20260902211023 61 78 9.0 11.0 0.00 0.00 0.00 89 1020.7
20260902210003 61 62 7.0 10.0 0.00 0.00 0.00 89 1021.2
20260902205023 61 65 8.0 12.0 0.00 0.00 0.00 87 1020.8
20260902204003 62 77 10.0 12.0 0.00 0.00 0.00 87 1020.9
20260902203002 62 78 10.0 11.0 0.00 0.00 0.00 88 1021.0
20260902202003 62 71 9.0 11.0 0.00 0.00 0.00 88 1021.2
20260902201003 62 70 10.0 12.0 0.00 0.00 0.00 88 1021.2
20260902200004 62 75 10.0 11.0 0.00 0.00 0.00 88 1021.3
20260902195003 61 56 8.0 10.0 0.00 0.00 0.00 88 1021.4
20260902194024 62 56 8.0 10.0 0.00 0.00 0.00 87 1021.4
20260902193002 62 63 8.0 10.0 0.00 0.00 0.00 87 1021.5
20260902192003 62 65 8.0 11.0 0.00 0.00 0.00 87 1021.5
20260902191003 62 64 9.0 11.0 0.00 0.00 0.00 86 1021.5
20260902190003 63 77 10.0 12.0 0.00 0.00 0.00 86 1021.4
20260902185024 63 79 10.0 12.0 0.00 0.00 0.00 86 1021.5
20260902184002 63 81 11.0 13.0 0.00 0.00 0.00 85 1021.2
20260902183003 63 86 11.0 13.0 0.00 0.00 0.00 85 1021.6
20260902182004 63 93 11.0 12.0 0.00 0.00 0.00 85 1021.5
20260902181023 64 85 11.0 13.0 0.00 0.00 0.00 85 1021.5
20260902180005 63 87 12.0 15.0 0.00 0.00 0.00 85 1021.7
20260902175003 63 82 14.0 17.0 0.00 0.00 0.00 84 1021.5
20260902174002 64 84 13.0 17.0 0.00 0.00 0.00 84 1021.4
20260902173003 64 80 15.0 16.0 0.00 0.00 0.00 84 1021.3
20260902172002 64 89 12.0 15.0 0.00 0.00 0.00 83 1021.4
20260902171003 64 92 13.0 15.0 0.00 0.00 0.00 83 1021.7
20260902170003 65 94 11.0 14.0 0.00 0.00 0.00 82 1021.6
20260902165002 64 93 13.0 15.0 0.00 0.00 0.00 82 1021.8
20260902164003 65 87 14.0 17.0 0.00 0.00 0.00 81 1021.7
20260902163003 65 82 15.0 19.0 0.00 0.00 0.00 82 1021.9
20260902162003 65 80 16.0 20.0 0.00 0.00 0.00 82 1021.8
20260902161025 65 83 17.0 20.0 0.00 0.00 0.00 82 1021.9
20260902160003 65 85 16.0 19.0 0.00 0.00 0.00 82 1022.3
20260902155023 65 87 16.0 19.0 0.00 0.00 0.00 82 1022.1
20260902154003 64 82 17.0 18.0 0.00 0.00 0.00 83 1022.1
20260902153003 64 80 15.0 17.0 0.00 0.00 0.00 83 1022.2
20260902152003 64 81 15.0 17.0 0.00 0.00 0.00 83 1022.1
20260902151003 64 78 15.0 16.0 0.00 0.00 0.00 84 1022.0
20260902150002 64 82 14.0 17.0 0.00 0.00 0.00 84 1022.1
20260902145024 63 61 14.0 17.0 0.00 0.00 0.00 83 1022.0
20260902144023 63 59 13.0 16.0 0.00 0.00 0.00 83 1022.0
20260902143045 63 56 13.0 17.0 0.00 0.00 0.00 83 1021.8
20260902142003 63 61 12.0 16.0 0.00 0.00 0.00 83 1021.8
20260902141003 63 58 12.0 15.0 0.00 0.00 0.00 84 1021.7
20260902140003 62 53 12.0 15.0 0.00 0.00 0.00 83 1021.7
20260902135003 62 64 12.0 15.0 0.00 0.00 0.00 83 1021.7
20260902134003 63 53 10.0 14.0 0.00 0.00 0.00 84 1021.7
20260902133003 62 58 11.0 14.0 0.00 0.00 0.00 85 1021.4
20260902132002 62 55 10.0 14.0 0.00 0.00 0.00 84 1021.4
20260902131003 62 64 12.0 14.0 0.00 0.00 0.00 85 1021.4
20260902130003 62 55 9.0 12.0 0.00 0.00 0.00 85 1021.5
20260902125003 62 50 10.0 12.0 0.00 0.00 0.00 86 1021.4
20260902124003 62 45 9.0 11.0 0.00 0.00 0.00 86 1021.4
20260902123002 62 41 9.0 12.0 0.00 0.00 0.00 86 1021.4
20260902122003 62 40 9.0 12.0 0.00 0.00 0.00 87 1021.4
20260902121023 61 53 9.0 12.0 0.00 0.00 0.00 87 1021.7
20260902120003 61 43 9.0 12.0 0.00 0.00 0.00 88 1021.6
20260902115002 61 42 9.0 12.0 0.00 0.00 0.00 88 1021.5
20260902114024 61 40 9.0 12.0 0.00 0.00 0.00 89 1021.4
20260902113003 61 40 10.0 13.0 0.00 0.00 0.00 90 1021.2
20260902112002 61 48 10.0 13.0 0.00 0.00 0.00 90 1020.9
20260902111003 60 41 10.0 13.0 0.00 0.00 0.00 90 1020.9
20260902105003 60 44 9.0 12.0 0.00 0.00 0.00 92 1020.8
20260902104002 60 28 8.0 12.0 0.00 0.00 0.00 92 1020.9
20260902103003 59 29 9.0 13.0 0.00 0.00 0.00 93 1020.8
20260902102003 59 28 9.0 12.0 0.00 0.00 0.00 93 1020.8
20260902101003 59 29 9.0 12.0 0.00 0.00 0.00 93 1020.8
20260902100003 59 29 6.0 11.0 0.00 0.00 0.00 94 1020.9
20260902095002 59 27 6.0 10.0 0.00 0.00 0.00 94 1020.9
20260902094003 59 27 7.0 10.0 0.00 0.00 0.00 94 1020.9
20260902093003 59 28 7.0 10.0 0.00 0.00 0.00 94 1020.7
20260902092023 60 18 5.0 9.0 0.00 0.00 0.00 94 1020.7
20260902091003 60 26 5.0 10.0 0.00 0.00 0.00 94 1020.7
20260902090004 60 21 6.0 9.0 0.00 0.00 0.00 94 1020.8
20260902085003 60 13 4.0 8.0 0.00 0.00 0.00 94 1020.8
20260902084003 60 15 5.0 10.0 0.00 0.00 0.00 94 1020.8
20260902083002 60 32 7.0 10.0 0.00 0.00 0.00 94 1020.7
20260902082003 60 41 9.0 12.0 0.00 0.00 0.00 94 1020.8
20260902081003 61 39 8.0 11.0 0.00 0.00 0.00 94 1020.7
20260902080003 61 54 8.0 12.0 0.00 0.00 0.00 94 1020.7
20260902075003 60 54 10.0 12.0 0.00 0.00 0.00 94 1020.7
20260902074002 60 57 9.0 12.0 0.00 0.00 0.00 94 1020.7
20260902073003 61 48 8.0 10.0 0.00 0.00 0.00 94 1020.5
20260902072003 61 45 6.0 9.0 0.00 0.00 0.00 94 1020.6
20260902071002 61 41 9.0 10.0 0.00 0.00 0.00 94 1020.5
20260902070003 61 44 8.0 10.0 0.00 0.00 0.00 94 1020.5
20260902065003 61 55 7.0 10.0 0.00 0.00 0.00 94 1020.5
20260902064003 61 38 5.0 8.0 0.00 0.00 0.00 94 1020.5
20260902063003 61 45 6.0 10.0 0.00 0.00 0.00 94 1020.5
20260902062003 61 52 7.0 11.0 0.00 0.00 0.00 94 1020.3